Regional Weather Roundup
Issued by NWS Cleveland, OH

Home | Current Version | Previous Version | Graphics & Text | Print | Product List | Glossary On
Versions: 1 2 3 4 5 6 7 8 9 10 11 12 13 14 15 16 17 18 19 20 21 22 23 24 25 26 27 28 29 30 31 32 33 34 35 36 37 38 39 40 41 42 43 44 45 46 47 48 49 50
000
ASUS41 KCLE 241900
RWRCLE
OHIO REGIONAL WEATHER ROUNDUP
NATIONAL WEATHER SERVICE WILMINGTON, OH
300 PM EDT FRI MAR 24 2017

NOTE: "FAIR" INDICATES FEW OR NO CLOUDS BELOW 12,000 FEET WITH NO
SIGNIFICANT WEATHER AND/OR OBSTRUCTIONS TO VISIBILITY.

OHZ001>008-015>018-024>027-034-035-043-044-242000-
   NORTHWEST OHIO

CITY           SKY/WX    TMP DP  RH WIND       PRES   REMARKS
DEFIANCE       FAIR      72  53  51 SW21G30   29.99F
FINDLAY        FAIR      75  52  44 SW25G33   30.02F
TOLEDO EXPRESS FAIR      73  52  47 SW24G35   29.98F
TOLEDO EXEC    FAIR      73  54  51 SW24G35   29.99F
LIMA           FAIR      73  55  53 SW24G32   30.05F
$$

OHZ009>014-019>023-028>033-038-089-242000-
   NORTHEAST OHIO

CITY           SKY/WX    TMP DP  RH WIND       PRES   REMARKS
CLE-HOPKINS    CLOUDY    70  50  49 SW24G30   30.05F
CLE-LAKEFRONT  FAIR      70  50  49 SW24G30   30.01F
CUY CO. ARPT   PTSUNNY   72  54  53 SW14G25   30.03F
LORAIN-ELYRIA  FAIR      68  52  56 SW28G35   30.03F
ASHTABULA      FAIR      70  50  49 SW21      30.03F
AKRON-CANTON   PTSUNNY   69  49  48 W16G29    30.08F
WOOSTER        NOT AVBL
MANSFIELD      FAIR      69  52  54 SW23G29   30.08F
YOUNGSTOWN     CLOUDY    69  50  50 SW18G26   30.06F
$$

OHZ042-051>053-060>062-070>072-077>081-242000-
  SOUTHWEST OHIO

CITY           SKY/WX    TMP DP  RH WIND       PRES   REMARKS
CINC-COVINGTON PTSUNNY   72  52  49 S16G24    30.16F
CINC-LUNKEN    PTSUNNY   74  56  53 SW15      30.15F
HAMILTON       PTSUNNY   74  53  48 SW9       30.15F
DAYTON         NOT AVBL
WRIGHT-PAT AFB MOSUNNY   74  52  46 SW17      30.11F
DAYTON GENERAL FAIR      72  52  49 S21G26    30.13F
WILMINGTON     FAIR      71  54  54 SW17      30.15F
$$

OHZ036-037-039>041-045>050-054>059-063>069-073>076-082>088-242000-
  CENTRAL AND SOUTHEAST OHIO

CITY           SKY/WX    TMP DP  RH WIND       PRES   REMARKS
COLUMBUS       FAIR      72  52  49 SW16      30.13F
OSU AIRPORT    FAIR      72  53  51 SW20G31   30.11F
BOLTON FIELD   MOSUNNY   70  54  56 SW20G30   30.14F
RICKENBACK AFB NOT AVBL
NEWARK         FAIR      69  51  52 SW16G26   30.13F
MARION         FAIR      71  51  49 SW20G30   30.08F
LANCASTER      FAIR      73  52  47 W21G29    30.15F
ZANESVILLE     FAIR      74  52  46 W14G24    30.13F
NEW PHILLY     FAIR      73  52  47 SW14G25   30.11F
$$




USA.gov is the U.S. government's official web portal to all federal, state and local government web resources and services.